owner,sensor,date,latitude,longitude,vertical_datum,mass_concentration_of_oxygen_in_sea_water,qcFlag 
SCCF RECON,ioos:station:SCCF:11:1,2011-07-01T00:00:00Z,26.4679,-82.0631,1.29,6.19,1111122 
SCCF RECON,ioos:station:SCCF:11:1,2011-07-01T01:00:00Z,26.4679,-82.0631,1.3,5.75,1111122 
SCCF RECON,ioos:station:SCCF:11:1,2011-07-01T02:00:00Z,26.4679,-82.0631,1.44,5.67,1111122 
SCCF RECON,ioos:station:SCCF:11:1,2011-07-01T03:00:00Z,26.4679,-82.0631,1.57,5.6,1111122 
SCCF RECON,ioos:station:SCCF:11:1,2011-07-01T04:00:00Z,26.4679,-82.0631,1.696,5.48,1111122 
SCCF RECON,ioos:station:SCCF:11:1,2011-07-01T05:00:00Z,26.4679,-82.0631,1.83,5.23,1111122 
SCCF RECON,ioos:station:SCCF:11:1,2011-07-01T06:00:00Z,26.4679,-82.0631,1.9,5.02,1111122 
SCCF RECON,ioos:station:SCCF:11:1,2011-07-01T07:00:00Z,26.4679,-82.0631,1.89,5.12,1111122 
SCCF RECON,ioos:station:SCCF:11:1,2011-07-01T08:00:00Z,26.4679,-82.0631,1.84,5.15,1111122 
SCCF RECON,ioos:station:SCCF:11:1,2011-07-01T09:00:00Z,26.4679,-82.0631,1.78,5.02,1111122 
SCCF RECON,ioos:station:SCCF:11:1,2011-07-01T10:00:00Z,26.4679,-82.0631,1.75,4.64,1111122 
SCCF RECON,ioos:station:SCCF:11:1,2011-07-01T11:00:00Z,26.4679,-82.0631,1.74,4.09,1111122 
SCCF RECON,ioos:station:SCCF:11:1,2011-07-01T12:00:00Z,26.4679,-82.0631,1.75,4.39,1111122 
SCCF RECON,ioos:station:SCCF:11:1,2011-07-01T13:00:00Z,26.4679,-82.0631,1.8,3.8,1111122 
SCCF RECON,ioos:station:SCCF:11:1,2011-07-01T14:00:00Z,26.4679,-82.0631,1.92,4.24,1111122 
SCCF RECON,ioos:station:SCCF:11:1,2011-07-01T15:00:00Z,26.4679,-82.0631,2.065,5.35,1111122 
SCCF RECON,ioos:station:SCCF:11:1,2011-07-01T16:00:00Z,26.4679,-82.0631,2.156,5.67,1111122 
SCCF RECON,ioos:station:SCCF:11:1,2011-07-01T17:00:00Z,26.4679,-82.0631,2.2,5.62,1111122 
SCCF RECON,ioos:station:SCCF:11:1,2011-07-01T18:00:00Z,26.4679,-82.0631,2.202,5.68,1111122 
SCCF RECON,ioos:station:SCCF:11:1,2011-07-01T19:00:00Z,26.4679,-82.0631,2.11,6.8,1111122 
SCCF RECON,ioos:station:SCCF:11:1,2011-07-01T20:00:00Z,26.4679,-82.0631,1.929,6.86,1111122 
SCCF RECON,ioos:station:SCCF:11:1,2011-07-01T21:00:00Z,26.4679,-82.0631,1.738,6.76,1111122 
SCCF RECON,ioos:station:SCCF:11:1,2011-07-01T22:00:00Z,26.4679,-82.0631,1.608,6.93,1111122 
SCCF RECON,ioos:station:SCCF:11:1,2011-07-01T23:00:00Z,26.4679,-82.0631,1.469,7.04,1111122 
SCCF RECON,ioos:station:SCCF:11:1,2011-07-02T00:00:00Z,26.4679,-82.0631,1.359,7.0,1111122 
SCCF RECON,ioos:station:SCCF:11:1,2011-07-02T01:00:00Z,26.4679,-82.0631,1.3,7.01,1111122 
SCCF RECON,ioos:station:SCCF:11:1,2011-07-02T02:00:00Z,26.4679,-82.0631,1.31,6.47,1111122 
SCCF RECON,ioos:station:SCCF:11:1,2011-07-02T03:00:00Z,26.4679,-82.0631,1.474,6.29,1111122 
SCCF RECON,ioos:station:SCCF:11:1,2011-07-02T04:00:00Z,26.4679,-82.0631,1.65,6.17,1111122 
SCCF RECON,ioos:station:SCCF:11:1,2011-07-02T05:00:00Z,26.4679,-82.0631,1.8,5.77,1111122 
SCCF RECON,ioos:station:SCCF:11:1,2011-07-02T06:00:00Z,26.4679,-82.0631,1.9,5.47,1111122 
SCCF RECON,ioos:station:SCCF:11:1,2011-07-02T07:00:00Z,26.4679,-82.0631,1.938,5.65,1111122 
SCCF RECON,ioos:station:SCCF:11:1,2011-07-02T08:00:00Z,26.4679,-82.0631,1.9,5.69,1111122 
SCCF RECON,ioos:station:SCCF:11:1,2011-07-02T09:00:00Z,26.4679,-82.0631,1.81,5.64,1111122 
SCCF RECON,ioos:station:SCCF:11:1,2011-07-02T10:00:00Z,26.4679,-82.0631,1.79,4.96,1111122 
SCCF RECON,ioos:station:SCCF:11:1,2011-07-02T11:00:00Z,26.4679,-82.0631,1.8,5.02,1111122 
SCCF RECON,ioos:station:SCCF:11:1,2011-07-02T12:00:00Z,26.4679,-82.0631,1.75,5.06,1111122 
SCCF RECON,ioos:station:SCCF:11:1,2011-07-02T13:00:00Z,26.4679,-82.0631,1.721,4.73,1111122 
SCCF RECON,ioos:station:SCCF:11:1,2011-07-02T14:00:00Z,26.4679,-82.0631,1.81,4.23,1111122 
SCCF RECON,ioos:station:SCCF:11:1,2011-07-02T15:00:00Z,26.4679,-82.0631,1.954,4.5,1111122 
SCCF RECON,ioos:station:SCCF:11:1,2011-07-02T16:00:00Z,26.4679,-82.0631,2.052,4.7,1111122 
SCCF RECON,ioos:station:SCCF:11:1,2011-07-02T17:00:00Z,26.4679,-82.0631,2.127,5.02,1111122 
SCCF RECON,ioos:station:SCCF:11:1,2011-07-02T18:00:00Z,26.4679,-82.0631,2.16,4.78,1111122 
SCCF RECON,ioos:station:SCCF:11:1,2011-07-02T19:00:00Z,26.4679,-82.0631,2.13,5.14,1111122 
SCCF RECON,ioos:station:SCCF:11:1,2011-07-02T20:00:00Z,26.4679,-82.0631,2.008,5.38,1111122 
SCCF RECON,ioos:station:SCCF:11:1,2011-07-02T21:00:00Z,26.4679,-82.0631,1.84,5.3,1111122 
SCCF RECON,ioos:station:SCCF:11:1,2011-07-02T22:00:00Z,26.4679,-82.0631,1.667,5.6,1111122 
SCCF RECON,ioos:station:SCCF:11:1,2011-07-02T23:00:00Z,26.4679,-82.0631,1.51,5.85,1111122 
SCCF RECON,ioos:station:SCCF:11:1,2011-07-03T00:00:00Z,26.4679,-82.0631,1.381,5.84,1111122 
SCCF RECON,ioos:station:SCCF:11:1,2011-07-03T01:00:00Z,26.4679,-82.0631,1.268,5.81,1111122 
SCCF RECON,ioos:station:SCCF:11:1,2011-07-03T02:00:00Z,26.4679,-82.0631,1.27,5.42,1111122 
SCCF RECON,ioos:station:SCCF:11:1,2011-07-03T03:00:00Z,26.4679,-82.0631,1.391,5.35,1111122 
SCCF RECON,ioos:station:SCCF:11:1,2011-07-03T04:00:00Z,26.4679,-82.0631,1.56,5.27,1111122 
SCCF RECON,ioos:station:SCCF:11:1,2011-07-03T05:00:00Z,26.4679,-82.0631,1.713,4.88,1111122 
SCCF RECON,ioos:station:SCCF:11:1,2011-07-03T06:00:00Z,26.4679,-82.0631,1.84,4.87,1111122 
SCCF RECON,ioos:station:SCCF:11:1,2011-07-03T07:00:00Z,26.4679,-82.0631,1.89,5.16,1111122 
SCCF RECON,ioos:station:SCCF:11:1,2011-07-03T08:00:00Z,26.4679,-82.0631,1.93,4.9,1111122 
SCCF RECON,ioos:station:SCCF:11:1,2011-07-03T09:00:00Z,26.4679,-82.0631,1.93,4.89,1111122 
SCCF RECON,ioos:station:SCCF:11:1,2011-07-03T10:00:00Z,26.4679,-82.0631,1.833,4.94,1111122 
SCCF RECON,ioos:station:SCCF:11:1,2011-07-03T11:00:00Z,26.4679,-82.0631,1.76,4.58,1111122 
SCCF RECON,ioos:station:SCCF:11:1,2011-07-03T12:00:00Z,26.4679,-82.0631,1.727,4.31,1111122 
SCCF RECON,ioos:station:SCCF:11:1,2011-07-03T13:00:00Z,26.4679,-82.0631,1.69,4.28,1111122 
SCCF RECON,ioos:station:SCCF:11:1,2011-07-03T14:00:00Z,26.4679,-82.0631,1.73,4.52,1111122 
SCCF RECON,ioos:station:SCCF:11:1,2011-07-03T15:00:00Z,26.4679,-82.0631,1.86,4.58,1111122 
SCCF RECON,ioos:station:SCCF:11:1,2011-07-03T16:00:00Z,26.4679,-82.0631,1.994,5.07,1111122 
SCCF RECON,ioos:station:SCCF:11:1,2011-07-03T17:00:00Z,26.4679,-82.0631,2.101,5.65,1111122 
SCCF RECON,ioos:station:SCCF:11:1,2011-07-03T18:00:00Z,26.4679,-82.0631,2.181,6.06,1111122 
SCCF RECON,ioos:station:SCCF:11:1,2011-07-03T19:00:00Z,26.4679,-82.0631,2.22,5.83,1111122 
SCCF RECON,ioos:station:SCCF:11:1,2011-07-03T20:00:00Z,26.4679,-82.0631,2.15,7.11,1111122 
SCCF RECON,ioos:station:SCCF:11:1,2011-07-03T21:00:00Z,26.4679,-82.0631,1.99,7.42,1111122 
SCCF RECON,ioos:station:SCCF:11:1,2011-07-03T22:00:00Z,26.4679,-82.0631,1.839,6.93,1111122 
SCCF RECON,ioos:station:SCCF:11:1,2011-07-03T23:00:00Z,26.4679,-82.0631,1.68,6.48,1111122 
SCCF RECON,ioos:station:SCCF:11:1,2011-07-04T00:00:00Z,26.4679,-82.0631,1.544,6.49,1111122 
SCCF RECON,ioos:station:SCCF:11:1,2011-07-04T01:00:00Z,26.4679,-82.0631,1.372,6.32,1111122 
SCCF RECON,ioos:station:SCCF:11:1,2011-07-04T02:00:00Z,26.4679,-82.0631,1.32,5.66,1111122 
SCCF RECON,ioos:station:SCCF:11:1,2011-07-04T03:00:00Z,26.4679,-82.0631,1.337,5.4,1111122 
SCCF RECON,ioos:station:SCCF:11:1,2011-07-04T04:00:00Z,26.4679,-82.0631,1.47,5.47,1111122 
SCCF RECON,ioos:station:SCCF:11:1,2011-07-04T05:00:00Z,26.4679,-82.0631,1.651,5.4,1111122 
SCCF RECON,ioos:station:SCCF:11:1,2011-07-04T06:00:00Z,26.4679,-82.0631,1.81,5.5,1111122 
SCCF RECON,ioos:station:SCCF:11:1,2011-07-04T07:00:00Z,26.4679,-82.0631,1.9,5.45,1111122 
SCCF RECON,ioos:station:SCCF:11:1,2011-07-04T08:00:00Z,26.4679,-82.0631,1.97,5.31,1111122 
SCCF RECON,ioos:station:SCCF:11:1,2011-07-04T09:00:00Z,26.4679,-82.0631,1.99,5.09,1111122 
SCCF RECON,ioos:station:SCCF:11:1,2011-07-04T10:00:00Z,26.4679,-82.0631,1.93,5.26,1111122 
SCCF RECON,ioos:station:SCCF:11:1,2011-07-04T11:00:00Z,26.4679,-82.0631,1.816,4.8,1111122 
SCCF RECON,ioos:station:SCCF:11:1,2011-07-04T12:00:00Z,26.4679,-82.0631,1.753,4.67,1111122 
SCCF RECON,ioos:station:SCCF:11:1,2011-07-04T13:00:00Z,26.4679,-82.0631,1.703,4.57,1111122 
SCCF RECON,ioos:station:SCCF:11:1,2011-07-04T14:00:00Z,26.4679,-82.0631,1.68,4.69,1111122 
SCCF RECON,ioos:station:SCCF:11:1,2011-07-04T15:00:00Z,26.4679,-82.0631,1.754,4.64,1111122 
SCCF RECON,ioos:station:SCCF:11:1,2011-07-04T16:00:00Z,26.4679,-82.0631,1.889,5.18,1111122 
SCCF RECON,ioos:station:SCCF:11:1,2011-07-04T17:00:00Z,26.4679,-82.0631,2.01,6.03,1111122 
SCCF RECON,ioos:station:SCCF:11:1,2011-07-04T18:00:00Z,26.4679,-82.0631,2.1,6.22,1111122 
SCCF RECON,ioos:station:SCCF:11:1,2011-07-04T19:00:00Z,26.4679,-82.0631,2.137,6.13,1111122 
SCCF RECON,ioos:station:SCCF:11:1,2011-07-04T20:00:00Z,26.4679,-82.0631,2.12,6.92,1111122 
SCCF RECON,ioos:station:SCCF:11:1,2011-07-04T21:00:00Z,26.4679,-82.0631,2.05,7.19,1111122 
SCCF RECON,ioos:station:SCCF:11:1,2011-07-04T22:00:00Z,26.4679,-82.0631,1.97,7.53,1111122 
SCCF RECON,ioos:station:SCCF:11:1,2011-07-04T23:00:00Z,26.4679,-82.0631,1.78,7.02,1111122 
SCCF RECON,ioos:station:SCCF:11:1,2011-07-05T00:00:00Z,26.4679,-82.0631,1.631,6.93,1111122 
SCCF RECON,ioos:station:SCCF:11:1,2011-07-05T01:00:00Z,26.4679,-82.0631,1.498,6.75,1111122 
SCCF RECON,ioos:station:SCCF:11:1,2011-07-05T02:00:00Z,26.4679,-82.0631,1.391,6.36,1111122 
SCCF RECON,ioos:station:SCCF:11:1,2011-07-05T03:00:00Z,26.4679,-82.0631,1.351,6.04,1111122 
SCCF RECON,ioos:station:SCCF:11:1,2011-07-05T04:00:00Z,26.4679,-82.0631,1.435,5.62,1111122 
SCCF RECON,ioos:station:SCCF:11:1,2011-07-05T05:00:00Z,26.4679,-82.0631,1.6,5.68,1111122 
SCCF RECON,ioos:station:SCCF:11:1,2011-07-05T06:00:00Z,26.4679,-82.0631,1.75,5.57,1111122 
SCCF RECON,ioos:station:SCCF:11:1,2011-07-05T07:00:00Z,26.4679,-82.0631,1.86,5.55,1111122 
SCCF RECON,ioos:station:SCCF:11:1,2011-07-05T08:00:00Z,26.4679,-82.0631,1.95,5.54,1111122 
SCCF RECON,ioos:station:SCCF:11:1,2011-07-05T09:00:00Z,26.4679,-82.0631,2.006,5.62,1111122 
SCCF RECON,ioos:station:SCCF:11:1,2011-07-05T10:00:00Z,26.4679,-82.0631,1.971,5.52,1111122 
SCCF RECON,ioos:station:SCCF:11:1,2011-07-05T11:00:00Z,26.4679,-82.0631,1.859,5.13,1111122 
SCCF RECON,ioos:station:SCCF:11:1,2011-07-05T12:00:00Z,26.4679,-82.0631,1.731,4.89,1111122 
SCCF RECON,ioos:station:SCCF:11:1,2011-07-05T13:00:00Z,26.4679,-82.0631,1.672,4.73,1111122 
SCCF RECON,ioos:station:SCCF:11:1,2011-07-05T14:00:00Z,26.4679,-82.0631,1.63,4.74,1111122 
SCCF RECON,ioos:station:SCCF:11:1,2011-07-05T15:00:00Z,26.4679,-82.0631,1.622,4.52,1111122 
SCCF RECON,ioos:station:SCCF:11:1,2011-07-05T16:00:00Z,26.4679,-82.0631,1.71,5.02,1111122 
SCCF RECON,ioos:station:SCCF:11:1,2011-07-05T17:00:00Z,26.4679,-82.0631,1.85,6.36,1111122 
SCCF RECON,ioos:station:SCCF:11:1,2011-07-05T18:00:00Z,26.4679,-82.0631,1.98,6.89,1111122 
SCCF RECON,ioos:station:SCCF:11:1,2011-07-05T19:00:00Z,26.4679,-82.0631,2.054,6.36,1111122 
SCCF RECON,ioos:station:SCCF:11:1,2011-07-05T20:00:00Z,26.4679,-82.0631,2.091,6.98,1111122 
SCCF RECON,ioos:station:SCCF:11:1,2011-07-05T21:00:00Z,26.4679,-82.0631,2.09,6.61,1111122 
SCCF RECON,ioos:station:SCCF:11:1,2011-07-05T22:00:00Z,26.4679,-82.0631,2.041,7.13,1111122 
SCCF RECON,ioos:station:SCCF:11:1,2011-07-05T23:00:00Z,26.4679,-82.0631,1.938,7.32,1111122 
SCCF RECON,ioos:station:SCCF:11:1,2011-07-06T00:00:00Z,26.4679,-82.0631,1.799,7.0,1111122 
SCCF RECON,ioos:station:SCCF:11:1,2011-07-06T01:00:00Z,26.4679,-82.0631,1.651,6.84,1111122 
SCCF RECON,ioos:station:SCCF:11:1,2011-07-06T02:00:00Z,26.4679,-82.0631,1.546,6.67,1111122 
SCCF RECON,ioos:station:SCCF:11:1,2011-07-06T03:00:00Z,26.4679,-82.0631,1.478,6.33,1111122 
SCCF RECON,ioos:station:SCCF:11:1,2011-07-06T04:00:00Z,26.4679,-82.0631,1.442,6.04,1111122 
SCCF RECON,ioos:station:SCCF:11:1,2011-07-06T05:00:00Z,26.4679,-82.0631,1.549,5.72,1111122 
SCCF RECON,ioos:station:SCCF:11:1,2011-07-06T06:00:00Z,26.4679,-82.0631,1.7,5.46,1111122 
SCCF RECON,ioos:station:SCCF:11:1,2011-07-06T07:00:00Z,26.4679,-82.0631,1.833,5.46,1111122 
SCCF RECON,ioos:station:SCCF:11:1,2011-07-06T08:00:00Z,26.4679,-82.0631,1.94,5.41,1111122 
SCCF RECON,ioos:station:SCCF:11:1,2011-07-06T09:00:00Z,26.4679,-82.0631,2.02,5.55,1111122 
SCCF RECON,ioos:station:SCCF:11:1,2011-07-06T10:00:00Z,26.4679,-82.0631,2.05,5.32,1111122 
SCCF RECON,ioos:station:SCCF:11:1,2011-07-06T11:00:00Z,26.4679,-82.0631,1.993,5.35,1111122 
SCCF RECON,ioos:station:SCCF:11:1,2011-07-06T12:00:00Z,26.4679,-82.0631,1.87,5.08,1111122 
SCCF RECON,ioos:station:SCCF:11:1,2011-07-06T13:00:00Z,26.4679,-82.0631,1.788,4.91,1111122 
SCCF RECON,ioos:station:SCCF:11:1,2011-07-06T14:00:00Z,26.4679,-82.0631,1.7,4.91,1111122 
SCCF RECON,ioos:station:SCCF:11:1,2011-07-06T15:00:00Z,26.4679,-82.0631,1.659,5.02,1111122 
SCCF RECON,ioos:station:SCCF:11:1,2011-07-06T16:00:00Z,26.4679,-82.0631,1.638,5.25,1111122 
SCCF RECON,ioos:station:SCCF:11:1,2011-07-06T17:00:00Z,26.4679,-82.0631,1.68,5.93,1111122 
SCCF RECON,ioos:station:SCCF:11:1,2011-07-06T18:00:00Z,26.4679,-82.0631,1.801,5.9,1111122 
SCCF RECON,ioos:station:SCCF:11:1,2011-07-06T19:00:00Z,26.4679,-82.0631,1.93,6.06,1111122 
SCCF RECON,ioos:station:SCCF:11:1,2011-07-06T20:00:00Z,26.4679,-82.0631,2.01,5.77,1111122 
SCCF RECON,ioos:station:SCCF:11:1,2011-07-06T21:00:00Z,26.4679,-82.0631,1.98,5.86,1111122 
SCCF RECON,ioos:station:SCCF:11:1,2011-07-06T22:00:00Z,26.4679,-82.0631,1.98,5.78,1111122 
SCCF RECON,ioos:station:SCCF:11:1,2011-07-06T23:00:00Z,26.4679,-82.0631,1.886,5.9,1111122 
SCCF RECON,ioos:station:SCCF:11:1,2011-07-07T00:00:00Z,26.4679,-82.0631,1.791,5.58,1111122 
SCCF RECON,ioos:station:SCCF:11:1,2011-07-07T01:00:00Z,26.4679,-82.0631,1.684,5.53,1111122 
SCCF RECON,ioos:station:SCCF:11:1,2011-07-07T02:00:00Z,26.4679,-82.0631,1.6,5.48,1111122 
SCCF RECON,ioos:station:SCCF:11:1,2011-07-07T03:00:00Z,26.4679,-82.0631,1.54,5.38,1111122 
SCCF RECON,ioos:station:SCCF:11:1,2011-07-07T04:00:00Z,26.4679,-82.0631,1.52,5.14,1111122 
SCCF RECON,ioos:station:SCCF:11:1,2011-07-07T05:00:00Z,26.4679,-82.0631,1.57,4.83,1111122 
SCCF RECON,ioos:station:SCCF:11:1,2011-07-07T06:00:00Z,26.4679,-82.0631,1.7,4.75,1111122 
SCCF RECON,ioos:station:SCCF:11:1,2011-07-07T07:00:00Z,26.4679,-82.0631,1.84,4.78,1111122 
SCCF RECON,ioos:station:SCCF:11:1,2011-07-07T08:00:00Z,26.4679,-82.0631,1.92,4.82,1111122 
SCCF RECON,ioos:station:SCCF:11:1,2011-07-07T09:00:00Z,26.4679,-82.0631,2.0,4.44,1111122 
SCCF RECON,ioos:station:SCCF:11:1,2011-07-07T10:00:00Z,26.4679,-82.0631,2.07,4.36,1111122 
SCCF RECON,ioos:station:SCCF:11:1,2011-07-07T11:00:00Z,26.4679,-82.0631,2.09,3.85,1111122 
SCCF RECON,ioos:station:SCCF:11:1,2011-07-07T12:00:00Z,26.4679,-82.0631,2.03,4.59,1111122 
SCCF RECON,ioos:station:SCCF:11:1,2011-07-07T13:00:00Z,26.4679,-82.0631,1.91,4.45,1111122 
SCCF RECON,ioos:station:SCCF:11:1,2011-07-07T14:00:00Z,26.4679,-82.0631,1.78,4.18,1111122 
SCCF RECON,ioos:station:SCCF:11:1,2011-07-07T15:00:00Z,26.4679,-82.0631,1.723,3.86,1111122 
SCCF RECON,ioos:station:SCCF:11:1,2011-07-07T16:00:00Z,26.4679,-82.0631,1.59,4.05,1111122 
SCCF RECON,ioos:station:SCCF:11:1,2011-07-07T17:00:00Z,26.4679,-82.0631,1.57,4.08,1111122 
SCCF RECON,ioos:station:SCCF:11:1,2011-07-07T18:00:00Z,26.4679,-82.0631,1.64,3.81,1111122 
SCCF RECON,ioos:station:SCCF:11:1,2011-07-07T19:00:00Z,26.4679,-82.0631,1.731,4.14,1111122 
SCCF RECON,ioos:station:SCCF:11:1,2011-07-07T20:00:00Z,26.4679,-82.0631,1.828,4.87,1111122 
SCCF RECON,ioos:station:SCCF:11:1,2011-07-07T21:00:00Z,26.4679,-82.0631,1.91,5.0,1111122 
SCCF RECON,ioos:station:SCCF:11:1,2011-07-07T22:00:00Z,26.4679,-82.0631,2.034,5.52,1111122 
SCCF RECON,ioos:station:SCCF:11:1,2011-07-07T23:00:00Z,26.4679,-82.0631,2.09,5.44,1111122 
SCCF RECON,ioos:station:SCCF:11:1,2011-07-08T00:00:00Z,26.4679,-82.0631,2.072,5.34,1111122 
SCCF RECON,ioos:station:SCCF:11:1,2011-07-08T01:00:00Z,26.4679,-82.0631,2.01,5.33,1111122 
SCCF RECON,ioos:station:SCCF:11:1,2011-07-08T02:00:00Z,26.4679,-82.0631,1.937,5.11,1111122 
SCCF RECON,ioos:station:SCCF:11:1,2011-07-08T03:00:00Z,26.4679,-82.0631,1.91,4.8,1111122 
SCCF RECON,ioos:station:SCCF:11:1,2011-07-08T04:00:00Z,26.4679,-82.0631,1.84,4.78,1111122 
SCCF RECON,ioos:station:SCCF:11:1,2011-07-08T05:00:00Z,26.4679,-82.0631,1.74,4.54,1111122 
SCCF RECON,ioos:station:SCCF:11:1,2011-07-08T06:00:00Z,26.4679,-82.0631,1.81,5.06,1111122 
SCCF RECON,ioos:station:SCCF:11:1,2011-07-08T07:00:00Z,26.4679,-82.0631,1.872,5.19,1111122 
SCCF RECON,ioos:station:SCCF:11:1,2011-07-08T08:00:00Z,26.4679,-82.0631,2.02,5.27,1111122 
SCCF RECON,ioos:station:SCCF:11:1,2011-07-08T09:00:00Z,26.4679,-82.0631,2.14,5.22,1111122 
SCCF RECON,ioos:station:SCCF:11:1,2011-07-08T10:00:00Z,26.4679,-82.0631,2.19,4.83,1111122 
SCCF RECON,ioos:station:SCCF:11:1,2011-07-08T11:00:00Z,26.4679,-82.0631,2.187,5.13,1111122 
SCCF RECON,ioos:station:SCCF:11:1,2011-07-08T12:00:00Z,26.4679,-82.0631,2.16,4.98,1111122 
SCCF RECON,ioos:station:SCCF:11:1,2011-07-08T13:00:00Z,26.4679,-82.0631,2.08,4.86,1111122 
SCCF RECON,ioos:station:SCCF:11:1,2011-07-08T14:00:00Z,26.4679,-82.0631,1.99,4.99,1111122 
SCCF RECON,ioos:station:SCCF:11:1,2011-07-08T15:00:00Z,26.4679,-82.0631,1.9,5.26,1111122 
SCCF RECON,ioos:station:SCCF:11:1,2011-07-08T16:00:00Z,26.4679,-82.0631,1.766,5.37,1111122 
SCCF RECON,ioos:station:SCCF:11:1,2011-07-08T17:00:00Z,26.4679,-82.0631,1.68,5.86,1111122 
SCCF RECON,ioos:station:SCCF:11:1,2011-07-08T18:00:00Z,26.4679,-82.0631,1.6,5.98,1111122 
SCCF RECON,ioos:station:SCCF:11:1,2011-07-08T19:00:00Z,26.4679,-82.0631,1.56,6.79,1111122 
SCCF RECON,ioos:station:SCCF:11:1,2011-07-08T20:00:00Z,26.4679,-82.0631,1.629,6.65,1111122 
SCCF RECON,ioos:station:SCCF:11:1,2011-07-08T21:00:00Z,26.4679,-82.0631,1.729,6.13,1111122 
SCCF RECON,ioos:station:SCCF:11:1,2011-07-08T22:00:00Z,26.4679,-82.0631,1.818,6.15,1111122 
SCCF RECON,ioos:station:SCCF:11:1,2011-07-08T23:00:00Z,26.4679,-82.0631,1.86,5.85,1111122 
SCCF RECON,ioos:station:SCCF:11:1,2011-07-09T00:00:00Z,26.4679,-82.0631,1.89,6.04,1111122 
SCCF RECON,ioos:station:SCCF:11:1,2011-07-09T01:00:00Z,26.4679,-82.0631,1.95,6.05,1111122 
SCCF RECON,ioos:station:SCCF:11:1,2011-07-09T02:00:00Z,26.4679,-82.0631,1.87,6.62,1111122 
SCCF RECON,ioos:station:SCCF:11:1,2011-07-09T03:00:00Z,26.4679,-82.0631,1.763,6.22,1111122 
SCCF RECON,ioos:station:SCCF:11:1,2011-07-09T04:00:00Z,26.4679,-82.0631,1.77,6.09,1111122 
SCCF RECON,ioos:station:SCCF:11:1,2011-07-09T05:00:00Z,26.4679,-82.0631,1.75,5.82,1111122 
SCCF RECON,ioos:station:SCCF:11:1,2011-07-09T06:00:00Z,26.4679,-82.0631,1.73,5.88,1111122 
SCCF RECON,ioos:station:SCCF:11:1,2011-07-09T07:00:00Z,26.4679,-82.0631,1.75,5.48,1111122 
SCCF RECON,ioos:station:SCCF:11:1,2011-07-09T08:00:00Z,26.4679,-82.0631,1.82,5.09,1111122 
SCCF RECON,ioos:station:SCCF:11:1,2011-07-09T09:00:00Z,26.4679,-82.0631,1.91,5.17,1111122 
SCCF RECON,ioos:station:SCCF:11:1,2011-07-09T10:00:00Z,26.4679,-82.0631,2.02,5.39,1111122 
SCCF RECON,ioos:station:SCCF:11:1,2011-07-09T11:00:00Z,26.4679,-82.0631,2.07,5.21,1111122 
SCCF RECON,ioos:station:SCCF:11:1,2011-07-09T12:00:00Z,26.4679,-82.0631,2.099,5.15,1111122 
SCCF RECON,ioos:station:SCCF:11:1,2011-07-09T13:00:00Z,26.4679,-82.0631,2.079,5.21,1111122 
SCCF RECON,ioos:station:SCCF:11:1,2011-07-09T14:00:00Z,26.4679,-82.0631,1.966,5.33,1111122 
SCCF RECON,ioos:station:SCCF:11:1,2011-07-09T15:00:00Z,26.4679,-82.0631,1.86,5.31,1111122 
SCCF RECON,ioos:station:SCCF:11:1,2011-07-09T16:00:00Z,26.4679,-82.0631,1.749,5.58,1111122 
SCCF RECON,ioos:station:SCCF:11:1,2011-07-09T17:00:00Z,26.4679,-82.0631,1.63,5.8,1111122 
SCCF RECON,ioos:station:SCCF:11:1,2011-07-09T18:00:00Z,26.4679,-82.0631,1.5,6.23,1111122 
SCCF RECON,ioos:station:SCCF:11:1,2011-07-09T19:00:00Z,26.4679,-82.0631,1.42,6.62,1111122 
SCCF RECON,ioos:station:SCCF:11:1,2011-07-09T20:00:00Z,26.4679,-82.0631,1.37,7.01,1111122 
SCCF RECON,ioos:station:SCCF:11:1,2011-07-09T21:00:00Z,26.4679,-82.0631,1.405,7.08,1111122 
SCCF RECON,ioos:station:SCCF:11:1,2011-07-09T22:00:00Z,26.4679,-82.0631,1.506,7.11,1111122 
SCCF RECON,ioos:station:SCCF:11:1,2011-07-09T23:00:00Z,26.4679,-82.0631,1.61,6.64,1111122 
SCCF RECON,ioos:station:SCCF:11:1,2011-07-10T00:00:00Z,26.4679,-82.0631,1.71,6.74,1111122 
SCCF RECON,ioos:station:SCCF:11:1,2011-07-10T01:00:00Z,26.4679,-82.0631,1.78,6.65,1111122 
SCCF RECON,ioos:station:SCCF:11:1,2011-07-10T02:00:00Z,26.4679,-82.0631,1.83,6.58,1111122 
SCCF RECON,ioos:station:SCCF:11:1,2011-07-10T03:00:00Z,26.4679,-82.0631,1.85,6.29,1111122 
SCCF RECON,ioos:station:SCCF:11:1,2011-07-10T04:00:00Z,26.4679,-82.0631,1.81,6.31,1111122 
SCCF RECON,ioos:station:SCCF:11:1,2011-07-10T05:00:00Z,26.4679,-82.0631,1.75,6.37,1111122 
SCCF RECON,ioos:station:SCCF:11:1,2011-07-10T06:00:00Z,26.4679,-82.0631,1.7,6.2,1111122 
SCCF RECON,ioos:station:SCCF:11:1,2011-07-10T07:00:00Z,26.4679,-82.0631,1.69,6.3,1111122 
SCCF RECON,ioos:station:SCCF:11:1,2011-07-10T08:00:00Z,26.4679,-82.0631,1.75,5.79,1111122 
SCCF RECON,ioos:station:SCCF:11:1,2011-07-10T09:00:00Z,26.4679,-82.0631,1.83,5.3,1111122 
SCCF RECON,ioos:station:SCCF:11:1,2011-07-10T10:00:00Z,26.4679,-82.0631,1.921,5.29,1111122 
SCCF RECON,ioos:station:SCCF:11:1,2011-07-10T11:00:00Z,26.4679,-82.0631,1.99,5.55,1111122 
SCCF RECON,ioos:station:SCCF:11:1,2011-07-10T12:00:00Z,26.4679,-82.0631,2.049,5.34,1111122 
SCCF RECON,ioos:station:SCCF:11:1,2011-07-10T13:00:00Z,26.4679,-82.0631,2.1,5.02,1111122 
SCCF RECON,ioos:station:SCCF:11:1,2011-07-10T14:00:00Z,26.4679,-82.0631,2.088,4.76,1111122 
SCCF RECON,ioos:station:SCCF:11:1,2011-07-10T15:00:00Z,26.4679,-82.0631,2.01,5.34,1111122 
SCCF RECON,ioos:station:SCCF:11:1,2011-07-10T16:00:00Z,26.4679,-82.0631,1.872,5.98,1111122 
SCCF RECON,ioos:station:SCCF:11:1,2011-07-10T17:00:00Z,26.4679,-82.0631,1.724,6.06,1111122 
SCCF RECON,ioos:station:SCCF:11:1,2011-07-10T18:00:00Z,26.4679,-82.0631,1.579,6.37,1111122 
SCCF RECON,ioos:station:SCCF:11:1,2011-07-10T19:00:00Z,26.4679,-82.0631,1.44,6.57,1111122 
SCCF RECON,ioos:station:SCCF:11:1,2011-07-10T20:00:00Z,26.4679,-82.0631,1.34,6.57,1111122 
SCCF RECON,ioos:station:SCCF:11:1,2011-07-10T21:00:00Z,26.4679,-82.0631,1.3,6.51,1111122 
SCCF RECON,ioos:station:SCCF:11:1,2011-07-10T22:00:00Z,26.4679,-82.0631,1.34,7.19,1111122 
SCCF RECON,ioos:station:SCCF:11:1,2011-07-10T23:00:00Z,26.4679,-82.0631,1.46,6.15,1111122 
SCCF RECON,ioos:station:SCCF:11:1,2011-07-11T00:00:00Z,26.4679,-82.0631,1.59,6.25,1111122 
SCCF RECON,ioos:station:SCCF:11:1,2011-07-11T01:00:00Z,26.4679,-82.0631,1.7,6.5,1111122 
SCCF RECON,ioos:station:SCCF:11:1,2011-07-11T02:00:00Z,26.4679,-82.0631,1.78,5.97,1111122 
SCCF RECON,ioos:station:SCCF:11:1,2011-07-11T03:00:00Z,26.4679,-82.0631,1.86,6.19,1111122 
SCCF RECON,ioos:station:SCCF:11:1,2011-07-11T04:00:00Z,26.4679,-82.0631,1.87,5.59,1111122 
SCCF RECON,ioos:station:SCCF:11:1,2011-07-11T05:00:00Z,26.4679,-82.0631,1.83,5.84,1111122 
SCCF RECON,ioos:station:SCCF:11:1,2011-07-11T06:00:00Z,26.4679,-82.0631,1.79,5.56,1111122 
SCCF RECON,ioos:station:SCCF:11:1,2011-07-11T07:00:00Z,26.4679,-82.0631,1.68,5.73,1111122 
SCCF RECON,ioos:station:SCCF:11:1,2011-07-11T08:00:00Z,26.4679,-82.0631,1.65,5.13,1111122 
SCCF RECON,ioos:station:SCCF:11:1,2011-07-11T09:00:00Z,26.4679,-82.0631,1.71,4.72,1111122 
SCCF RECON,ioos:station:SCCF:11:1,2011-07-11T10:00:00Z,26.4679,-82.0631,1.81,4.84,1111122 
SCCF RECON,ioos:station:SCCF:11:1,2011-07-11T11:00:00Z,26.4679,-82.0631,1.933,5.07,1111122 
SCCF RECON,ioos:station:SCCF:11:1,2011-07-11T12:00:00Z,26.4679,-82.0631,2.03,5.02,1111122 
SCCF RECON,ioos:station:SCCF:11:1,2011-07-11T13:00:00Z,26.4679,-82.0631,2.07,4.89,1111122 
SCCF RECON,ioos:station:SCCF:11:1,2011-07-11T14:00:00Z,26.4679,-82.0631,2.11,4.74,1111122 
SCCF RECON,ioos:station:SCCF:11:1,2011-07-11T15:00:00Z,26.4679,-82.0631,2.09,4.92,1111122 
SCCF RECON,ioos:station:SCCF:11:1,2011-07-11T16:00:00Z,26.4679,-82.0631,1.989,5.39,1111122 
SCCF RECON,ioos:station:SCCF:11:1,2011-07-11T17:00:00Z,26.4679,-82.0631,1.831,5.55,1111122 
SCCF RECON,ioos:station:SCCF:11:1,2011-07-11T18:00:00Z,26.4679,-82.0631,1.691,5.71,1111122 
SCCF RECON,ioos:station:SCCF:11:1,2011-07-11T19:00:00Z,26.4679,-82.0631,1.556,6.1,1111122 
SCCF RECON,ioos:station:SCCF:11:1,2011-07-11T20:00:00Z,26.4679,-82.0631,1.42,6.44,1111122 
SCCF RECON,ioos:station:SCCF:11:1,2011-07-11T21:00:00Z,26.4679,-82.0631,1.31,6.8,1111122 